CDT,Max TemperatureF,Mean TemperatureF,Min TemperatureF,Max Dew PointF,MeanDew PointF,Min DewpointF,Max Humidity, Mean Humidity, Min Humidity, Max Sea Level PressureIn, Mean Sea Level PressureIn, Min Sea Level PressureIn, Max VisibilityMiles, Mean VisibilityMiles, Min VisibilityMiles, Max Wind SpeedMPH, Mean Wind SpeedMPH, Max Gust SpeedMPH,PrecipitationIn, CloudCover, Events, WindDirDegrees
2011-9-1,95,84,72,76,67,60,87,64,41,29.79,29.74,29.69,10,10,7,21,11,26,0.00,0,,184
2011-9-2,90,80,69,72,67,60,93,69,44,29.97,29.85,29.73,10,8,2,23,7,28,0.79,3,Rain-Thunderstorm,52
2011-9-3,79,69,58,72,65,53,97,83,68,30.12,29.92,29.79,10,8,4,26,10,33,0.02,5,Rain-Thunderstorm,359
2011-9-4,74,62,50,52,49,45,89,62,35,30.23,30.19,30.13,10,10,10,21,10,26,0.00,0,,349
2011-9-5,72,59,45,52,47,44,93,67,41,30.27,30.19,30.11,10,10,10,12,3,14,0.00,0,,56
2011-9-6,74,59,44,51,48,42,93,67,41,30.22,30.17,30.13,10,10,10,13,4,16,0.00,0,,140
2011-9-7,77,62,47,55,52,46,96,70,43,30.30,30.25,30.21,10,10,10,8,3,13,0.00,0,,131
2011-9-8,75,61,47,57,52,46,100,72,43,30.32,30.25,30.17,10,10,8,17,7,23,0.00,0,,13
2011-9-9,82,68,53,59,56,52,100,71,42,30.15,30.07,29.99,10,10,9,22,9,28,0.00,2,,346
2011-9-10,82,69,55,60,57,54,100,71,42,30.09,30.05,30.00,10,9,1,12,4,16,0.00,0,,25
2011-9-11,85,69,52,61,57,52,93,65,37,30.12,30.06,30.00,10,10,1,9,2,12,0.00,0,,201
2011-9-12,94,75,56,65,58,54,93,62,30,30.00,29.91,29.81,10,10,9,24,9,28,0.00,0,,199
2011-9-13,72,64,55,59,52,49,86,67,47,30.10,30.04,29.93,10,10,10,16,8,24,0.00,0,,15
2011-9-14,63,51,39,54,44,27,93,62,30,30.39,30.25,30.11,10,10,8,23,11,29,0.07,5,Rain,12
2011-9-15,55,47,38,45,37,32,86,64,41,30.46,30.38,30.30,10,10,6,12,5,16,0.07,3,Rain,79
2011-9-16,55,51,46,50,46,44,93,83,72,30.29,30.20,30.12,10,10,6,14,9,17,0.14,8,Rain,126
2011-9-17,56,54,52,56,53,50,100,95,89,30.14,30.06,30.00,9,4,1,15,9,20,0.01,8,Rain,124
2011-9-18,73,62,50,61,57,51,100,79,57,30.03,29.99,29.96,10,6,1,13,3,16,0.23,7,Rain,359
2011-9-19,83,64,45,53,49,45,100,64,28,30.12,30.04,29.91,10,10,7,9,3,12,0.00,0,,172
2011-9-20,75,65,54,52,46,36,83,54,25,30.08,29.96,29.84,10,9,4,28,10,35,0.00,0,,293
2011-9-21,71,57,43,44,42,39,86,60,33,30.20,30.13,30.09,10,9,3,23,9,29,0.00,0,,308
2011-9-22,71,54,37,47,43,37,100,70,40,30.22,30.17,30.09,10,10,7,12,3,14,0.00,1,,27
2011-9-23,70,53,35,43,38,34,93,60,26,30.19,30.11,30.01,10,10,10,9,3,10,0.00,0,,10
2011-9-24,72,57,42,46,42,39,89,61,33,30.01,29.96,29.90,10,10,10,15,5,20,0.00,0,,102
2011-9-25,69,53,37,45,41,37,100,69,37,30.00,29.95,29.89,10,10,10,13,4,15,0.00,0,,18
2011-9-26,74,56,37,45,41,36,93,61,29,29.98,29.93,29.86,10,10,10,18,4,22,0.00,0,,331
2011-9-27,81,64,47,53,48,43,89,61,33,30.02,29.95,29.91,10,10,10,16,5,24,0.00,0,,338
2011-9-28,87,66,45,54,48,43,93,59,24,29.92,29.88,29.82,10,10,8,9,1,12,0.00,0,,320
2011-9-29,76,62,48,51,39,26,89,53,17,30.25,30.08,29.86,10,10,10,32,14,39,0.00,0,,336
2011-9-30,72,56,39,43,38,34,85,55,25,30.35,30.27,30.19,10,10,10,13,4,16,0.00,0,,347